Location: Newark
(43.0000°N, 1.6781°W)
Time: 10:24:25
(UTC+00:00)

AO-7 - Pass Details

Date: 16 December 2022
Orbit: 1440 x 1459 km, 101.9° (Epoch: 28 January)

Event Time Altitude Azimuth Distance (km) Brightness Sun altitude
Rises 03:15:44 0° 30° (NNE) 4,549 ? -45.7°
Reaches altitude 10° 03:19:35 10° 47° (NE) 3,569 ? -45.0°
Maximum altitude 03:25:19 20° 91° (E) 2,855 ? -44.0°
Drops below altitude 10° 03:31:02 10° 136° (SE) 3,564 ? -42.9°
Sets 03:34:50 0° 152° (SSE) 4,541 ? -42.3°
